Location: Pulvis Stellarum Observatory
(41.6962°N, 71.4263°W)
Time: 20:50:27
(UTC-04:00)

Daily predictions for brighter satellites

Satellite Brightness Start Highest point End
(mag) Time Altitude Azimuth Time Altitude Azimuth Time Altitude Azimuth
Cosmos 2366 rocket 4.0 18:10:40 10° S 18:16:53 82° E 18:23:03 10° N
COSMOS 2428 3.1 18:13:45 10° N 18:19:08 41° ENE 18:24:28 10° SE
BREEZE-M DEB (TANK) 4.3 18:02:34 10° W 18:20:03 70° NNW 18:24:45 10° ENE
Cosmos 2151 2.9 18:16:42 10° N 18:20:58 67° E 18:25:10 10° SSE
CORIOLIS 4.2 18:16:12 10° SSE 18:21:35 83° ENE 18:27:03 10° NNW
Cosmos 2333 Rocket 3.3 18:17:04 10° N 18:21:44 25° NE 18:26:23 10° ESE
Cosmos 2058 2.9 18:18:29 10° N 18:22:40 68° E 18:26:46 10° SSE
Cosmos 1833 4.4 18:17:11 10° SSW 18:22:51 81° WNW 18:28:32 10° NNE
Cosmos 2219 3.8 18:18:14 10° SSE 18:23:22 35° ESE 18:28:32 10° NE
MOS 1 4.5 18:20:26 10° SE 18:25:53 52° ENE 18:31:23 10° N
Cosmos 44 Rocket 3.4 18:22:00 10° SSW 18:26:32 51° ESE 18:31:07 10° NE
Cosmos 158 Rocket 4.1 18:25:18 10° S 18:30:13 55° ESE 18:35:19 10° NNE
Cosmos 2297 Rocket 3.9 18:29:13 10° ESE 18:30:28 11° E 18:31:43 10° E
Abrixas 1.9 18:29:08 10° SW 18:31:13 52° SSE 18:33:00 13° ENE
Cosmos 1048 Rocket 4.1 18:30:36 10° S 18:35:31 50° ESE 18:40:28 10° NNE
APEX 2.6 18:32:41 10° SSW 18:35:46 56° ESE 18:38:32 10° NE
BREEZE-M DEB (TANK) 2.7 18:34:21 10° WNW 18:36:25 32° SW 18:38:18 10° SSE
ERS-2 2.4 18:34:05 10° S 18:37:46 74° WSW 18:41:29 10° NNW
YAOGAN 1 2.6 18:35:40 10° SSE 18:39:59 89° ENE 18:44:21 10° NNW
Cosmos 1420 Rocket 4.0 18:36:22 10° NNW 18:41:43 81° ENE 18:46:59 10° SSE
Cosmos 1633 Rocket 4.4 18:39:27 10° NNE 18:42:44 20° ENE 18:45:59 10° ESE
Cosmos 1726 2.8 18:41:34 10° SSE 18:44:52 32° E 18:48:12 10° NNE
GRACE-2 3.5 18:42:25 10° S 18:44:57 65° E 18:47:30 10° N
CZ-4 R/B 2.3 18:40:54 10° S 18:45:00 54° W 18:49:05 10° NNW
Cosmos 2322 4.1 18:39:44 10° NNW 18:45:27 72° WSW 18:51:06 10° SSE
DELTA 2 R/B (1) 4.5 18:40:45 10° W 18:46:02 45° SSW 18:51:20 10° SE
EO 1 Del DPAF 3.2 18:43:59 10° NNE 18:47:51 85° ESE 18:51:42 10° SSW
CZ-2C R/B 4.4 18:44:20 10° N 18:48:45 57° WNW 18:53:06 10° SSW
GRACE-1 3.6 18:48:01 10° S 18:50:35 88° ESE 18:53:11 10° N
NOAA 12 4.2 18:45:41 10° SSE 18:50:48 53° ENE 18:55:59 10° N
Cosmos 1934 Rocket 4.5 18:45:12 10° SSE 18:50:59 38° E 18:56:47 10° NNE
Cosmos 2219 Rocket 2.5 18:46:34 10° NNW 18:51:58 46° ENE 18:57:21 10° SE
Cosmos 1821 Rocket 4.1 18:46:42 10° SSE 18:52:37 52° E 18:58:40 10° NNE
METEOR-M 4.1 18:51:01 10° SSE 18:56:21 89° ENE 19:01:44 10° NNW
BREEZE-M DEB (TANK) 2.9 18:55:49 10° W 18:57:51 30° NNW 18:58:56 18° NNE
Cosmos 2239 Rocket 4.5 18:52:03 10° SSE 18:58:00 57° E 19:04:02 10° NNE
Cosmos 2221 2.5 18:56:49 10° S 19:01:08 89° WNW 19:05:31 10° N
ALOS 2.2 18:57:29 10° SSE 19:02:04 61° ENE 19:06:41 10° N
Cosmos 2084 3.7 18:58:45 10° NNW 19:02:21 39° NE 19:04:15 23° ESE
Thor Agena Rocket 4.0 18:58:10 10° NNE 19:02:51 37° E 19:07:29 10° SSE
Cosmos 1315 Rocket 3.7 19:00:46 10° NNW 19:04:46 54° W 19:08:47 10° S
Cosmos 921 Rocket 4.3 19:01:37 10° NNW 19:05:50 45° WSW 19:09:57 10° S
SKYMED 2 3.8 19:02:21 10° N 19:06:42 75° WNW 19:11:01 10° SSW
Cosmos 1331 Rocket 4.5 19:04:23 10° N 19:09:15 37° ENE 19:12:27 19° ESE
Cosmos 2123 Rocket 4.0 19:17:06 10° N 19:23:17 59° E 19:29:28 10° SSE
BREEZE-M R/B 2.8 19:20:52 10° SSW 19:23:15 39° SE 19:23:15 39° SE
SJ-6B 3.4 19:25:54 34° NE 19:25:54 34° NE 19:28:41 10° N
Cosmos 1605 Rocket 4.1 19:21:19 10° SSE 19:27:08 49° E 19:32:58 10° NNE
In-Cosmos 22 Rocket 4.3 19:21:36 10° N 19:27:17 57° ENE 19:33:00 10° SSE
Lacrosse 5 rocket 3.9 19:27:15 10° N 19:27:50 10° N 19:28:26 10° NNE
Cosmos 2237 Rocket 2.4 19:23:42 10° NNW 19:29:15 50° ENE 19:31:45 30° ESE
Cosmos 44 4.4 19:27:02 10° WSW 19:31:05 38° NW 19:35:09 10° NNE
H-2A R/B 2.7 19:32:05 32° SSE 19:33:44 65° ENE 19:37:39 10° N
Aureole 2 Rocket 3.3 19:31:02 10° NNW 19:34:56 59° WSW 19:38:57 10° S
Cosmos 2227 Rocket 2.3 19:30:55 10° S 19:36:22 51° ESE 19:39:16 27° NE
Cosmos 1302 Rocket 4.4 19:33:41 10° N 19:38:34 39° ENE 19:38:38 39° ENE
NOSS 0 Rocket 3.8 19:33:48 10° NNW 19:40:00 83° ENE 19:44:52 17° SSE
SL-16 R/B 3.2 19:37:00 10° N 19:41:21 28° NE 19:41:21 28° NE
SWAS 4.3 19:37:47 10° SSW 19:42:00 68° ESE 19:42:35 59° ENE
Gbstr 26 Del rocket 4.0 19:38:28 10° WNW 19:43:32 62° SW 19:47:06 25° SSE
Abrixas rocket 3.6 19:41:08 10° NW 19:43:32 31° NNW 19:43:32 31° NNW
Centaur D AC-28 4.5 19:43:35 10° S 19:47:35 20° SE 19:47:35 20° SE
Cosmos 1300 3.2 19:44:39 10° SSW 19:48:25 58° W 19:52:13 10° N
Cosmos 494 Rocket 3.8 19:44:01 10° SSW 19:49:07 81° ESE 19:52:56 18° NNE
Sich 1 3.5 19:46:11 10° NNW 19:50:31 61° W 19:54:52 10° S
BREEZE M DEB (TANK) 4.2 19:33:10 10° WNW 19:50:37 67° NNE 19:52:21 45° E
Cosmos 1980 3.5 19:48:03 10° NNW 19:53:44 83° ENE 19:55:59 38° SSE
ATLAS 5 CENTAUR R/B 4.5 19:53:01 10° NNE 19:53:48 10° NNE 19:54:06 10° NNE
Resurs 01 Rocket 3.4 19:57:31 20° NNE 19:57:31 20° NNE 19:59:00 10° N
CZ-4C R/B 3.2 19:52:38 10° WSW 19:57:40 43° NW 20:02:55 12° NNE
Cosmos 1110 Rocket 4.2 19:52:36 10° NNW 19:57:55 73° WSW 20:01:18 22° S
Meteor 2-3 Rocket 3.7 19:54:50 10° N 20:00:29 59° ENE 20:00:29 59° ENE
Cosmos 1447 Rocket 4.4 19:54:41 10° N 20:00:59 64° E 20:02:38 47° SE
USA 32 3.8 19:59:10 10° N 20:04:26 76° E 20:04:44 73° ESE
Cosmos 2333 Rocket 2.9 20:00:44 10° NNW 20:06:20 54° WSW 20:11:07 14° S
Hubble Space Telescope 3.5 20:10:01 10° SSW 20:10:06 10° SSW 20:10:06 10° SSW
Cosmos 2297 Rocket 2.0 20:07:54 10° SSW 20:13:34 85° ESE 20:14:04 74° NE
Cosmos 1328 Rocket 4.3 20:15:53 10° SSW 20:25:10 - N 20:19:44 51° WSW
Envisat 4.1 20:24:49 33° N 20:24:49 33° N 20:27:36 10° N
Cosmos 2082 3.7 20:18:18 10° SSW 20:24:01 82° WNW 20:24:20 78° NNW
Cosmos 2251 Rocket 3.7 20:19:28 10° SSW 20:24:44 68° WNW 20:25:27 60° NNW
Cosmos 2219 Rocket 4.2 20:31:07 10° NW 20:35:36 25° WSW 20:40:05 10° SSW
USA 267 3.9 20:48:34 44° SSW 20:48:34 44° SSW 20:52:50 10° SW
BREEZE-M DEB (TANK) 4.3 20:55:35 10° WNW 21:04:20 45° W 21:04:20 45° W
Cosmos 2237 Rocket 4.1 21:08:29 10° NW 21:12:56 24° W 21:13:39 23° WSW
Cosmos 2227 Rocket 4.1 21:16:04 10° WSW 21:20:42 25° NW 21:21:12 25° NW
USA 234 4.5 21:23:45 33° NNW 21:23:45 33° NNW 21:27:31 10° NW
SL-16 R/B 4.1 21:20:45 10° NW 21:23:14 25° NW 21:23:14 25° NW
